This demonstration page uses our WeatherBlox Daily Observations layout. Learn more.

Left ArrowRight Arrow

Hourly Observations for July 3, 2020

Temp ( °F °C ) Dew Point ( °F °C ) Humidity (%) Winds ( mph kmh ) Pressure ( in mb ) Visibility ( mi km ) Precip ( " mm )
12:15 am 00:15 Clear 75 24 66 19 74 74 W 3 6 29.91 1013 10 16.0934 0 0
12:35 am 00:35 Clear 73 23 64 18 74 74 W 3 6 29.91 1013 10 16.0934 0 0
12:55 am 00:55 Clear 75 24 64 18 69 69 W 6 9 29.91 1013 10 16.0934 0 0
1:15 am 01:15 Clear 73 23 64 18 74 74 W 6 9 29.91 1013 10 16.0934 0 0
1:35 am 01:35 Clear 73 23 64 18 74 74 W 3 6 29.91 1013 10 16.0934 0 0
1:55 am 01:55 Clear 73 23 64 18 74 74 W 5 7 29.91 1013 10 16.0934 0 0
2:15 am 02:15 Clear 72 22 64 18 78 78 NW 5 7 29.91 1013 10 16.0934 0 0
2:35 am 02:35 Clear 73 23 64 18 74 74 Calm 29.9 1012 10 16.0934 0 0
2:55 am 02:55 Clear 72 22 64 18 78 78 WNW 3 6 29.9 1012 10 16.0934 0 0
3:15 am 03:15 Clear 70 21 64 18 83 83 WNW 6 9 29.91 1013 10 16.0934 0 0
3:35 am 03:35 Clear 70 21 64 18 83 83 WNW 5 7 29.91 1013 10 16.0934 0 0
3:55 am 03:55 Clear 73 23 63 17 69 69 NNW 6 9 29.91 1013 10 16.0934 0 0
4:15 am 04:15 Clear 73 23 63 17 69 69 NNW 3 6 29.9 1012 10 16.0934 0 0
4:35 am 04:35 Clear 75 24 63 17 65 65 N 5 7 29.91 1013 10 16.0934 0 0
4:55 am 04:55 Clear 73 23 63 17 69 69 NNW 8 13 29.91 1013 10 16.0934 0 0
5:15 am 05:15 Clear 73 23 63 17 69 69 NNW 8 13 29.9 1012 10 16.0934 0 0
5:35 am 05:35 Clear 73 23 63 17 69 69 NNW 6 9 29.91 1013 10 16.0934 0 0
5:55 am 05:55 Sunny 72 22 64 18 78 78 Calm 29.92 1013 10 16.0934 0 0
6:15 am 06:15 Sunny 72 22 64 18 78 78 NW 6 9 29.92 1013 10 16.0934 0 0
6:35 am 06:35 Sunny 73 23 64 18 74 74 NNW 5 7 29.92 1013 10 16.0934 0 0
6:55 am 06:55 Sunny 73 23 64 18 74 74 NNW 7 11 29.92 1013 10 16.0934 0 0
7:15 am 07:15 Sunny 75 24 64 18 69 69 NW 5 7 29.93 1013 10 16.0934 0 0
7:35 am 07:35 Sunny 77 25 66 19 69 69 NW 8 13 29.93 1014 10 16.0934 0 0
7:55 am 07:55 Sunny 77 25 64 18 65 65 NNW 9 15 29.93 1014 10 16.0934 0 0
8:15 am 08:15 Sunny 79 26 66 19 65 65 NNW 10 17 29.93 1014 10 16.0934 0 0
8:35 am 08:35 Sunny 79 26 64 18 61 61 NW 9 15 29.93 1014 10 16.0934 0 0
8:55 am 08:55 Sunny 81 27 68 20 66 66 NW 9 15 29.93 1014 10 16.0934 0 0
9:15 am 09:15 Sunny 81 27 66 19 62 62 NW 6 9 29.94 1014 10 16.0934 0 0
9:35 am 09:35 Sunny 82 28 66 19 58 58 NW 10 17 29.93 1014 10 16.0934 0 0
9:55 am 09:55 Sunny 82 28 68 20 62 62 NW 8 13 29.93 1014 10 16.0934 0 0
10:15 am 10:15 Sunny 82 28 68 20 62 62 NW 8 13 29.93 1014 10 16.0934 0 0
10:35 am 10:35 Sunny 84 29 68 20 58 58 N 7 11 29.93 1014 10 16.0934 0 0
10:55 am 10:55 Sunny 86 30 68 20 55 55 NNW 10 17 29.93 1013 10 16.0934 0 0
11:15 am 11:15 Sunny 86 30 68 20 55 55 N 8 13 29.93 1013 10 16.0934 0 0
11:35 am 11:35 Sunny 86 30 70 21 59 59 NNW 8 13 29.93 1013 10 16.0934 0 0
11:55 am 11:55 Sunny 86 30 68 20 55 55 N 8 13 29.93 1013 10 16.0934 0 0
12:15 pm 12:15 Sunny 88 31 70 21 55 55 NW 8 13 29.92 1013 10 16.0934 0 0
12:35 pm 12:35 Sunny 88 31 68 20 52 52 NW 5 7 29.92 1013 10 16.0934 0 0
12:55 pm 12:55 Sunny 90 32 70 21 52 52 NNW 8 13 29.91 1013 10 16.0934 0 0
1:15 pm 13:15 Sunny 90 32 68 20 49 49 N 7 11 29.91 1013 10 16.0934 0 0
1:35 pm 13:35 Sunny 90 32 68 20 49 49 Calm 29.91 1013 10 16.0934 0 0
1:55 pm 13:55 Sunny 90 32 64 18 43 43 NW 8 13 29.91 1013 10 16.0934 0 0
2:15 pm 14:15 Sunny 91 33 64 18 41 41 NNW 8 13 29.89 1012 10 16.0934 0 0
2:35 pm 14:35 Sunny 91 33 64 18 41 41 N 7 11 29.89 1012 10 16.0934 0 0
2:55 pm 14:55 Sunny 91 33 64 18 41 41 WNW 9 15 29.89 1012 10 16.0934 0 0
3:15 pm 15:15 Sunny 91 33 64 18 41 41 WNW 9 15 29.88 1012 10 16.0934 0 0
3:35 pm 15:35 Sunny 91 33 68 20 46 46 WNW 8 13 29.88 1012 10 16.0934 0 0
3:55 pm 15:55 Sunny 91 33 64 18 41 41 NW 10 17 29.87 1012 10 16.0934 0 0
4:15 pm 16:15 Sunny 91 33 66 19 44 44 WNW 9 15 29.87 1012 10 16.0934 0 0
4:35 pm 16:35 Sunny 91 33 66 19 44 44 NNW 10 17 29.87 1012 10 16.0934 0 0
4:55 pm 16:55 Sunny 91 33 66 19 44 44 NW 9 15 29.86 1011 10 16.0934 0 0
5:15 pm 17:15 Sunny 91 33 64 18 41 41 NNW 8 13 29.85 1011 10 16.0934 0 0
5:35 pm 17:35 Sunny 91 33 66 19 44 44 NW 5 7 29.85 1011 10 16.0934 0 0
5:55 pm 17:55 Sunny 91 33 66 19 44 44 NW 5 7 29.84 1011 10 16.0934 0 0
6:15 pm 18:15 Sunny 91 33 66 19 44 44 W 5 7 29.84 1011 10 16.0934 0 0
6:35 pm 18:35 Sunny 91 33 68 20 46 46 W 6 9 29.83 1010 10 16.0934 0 0
6:55 pm 18:55 Sunny 91 33 68 20 46 46 W 3 6 29.83 1010 10 16.0934 0 0
7:15 pm 19:15 Sunny 90 32 68 20 49 49 Calm 29.84 1010 10 16.0934 0 0
7:35 pm 19:35 Sunny 90 32 70 21 52 52 W 3 6 29.84 1010 10 16.0934 0 0
7:55 pm 19:55 Sunny 90 32 70 21 52 52 W 3 6 29.84 1010 10 16.0934 0 0
8:15 pm 20:15 Sunny 88 31 72 22 59 59 W 3 6 29.84 1010 10 16.0934 0 0
8:35 pm 20:35 Sunny 86 30 72 22 62 62 Calm 29.85 1011 10 16.0934 0 0
8:55 pm 20:55 Clear 84 29 72 22 66 66 Calm 29.85 1011 10 16.0934 0 0
9:15 pm 21:15 Clear 82 28 72 22 70 70 W 3 6 29.86 1011 10 16.0934 0 0
9:35 pm 21:35 Clear 82 28 72 22 70 70 W 3 6 29.86 1011 10 16.0934 0 0
9:55 pm 21:55 Clear 81 27 72 22 74 74 WNW 3 6 29.87 1012 10 16.0934 0 0
10:15 pm 22:15 Clear 79 26 72 22 79 79 W 3 6 29.87 1012 10 16.0934 0 0
10:35 pm 22:35 Clear 79 26 70 21 74 74 WNW 3 6 29.87 1012 10 16.0934 0 0
10:55 pm 22:55 Clear 79 26 70 21 74 74 WNW 5 7 29.87 1012 10 16.0934 0 0
11:15 pm 23:15 Clear 79 26 70 21 74 74 WNW 5 7 29.88 1012 10 16.0934 0 0
11:35 pm 23:35 Clear 81 27 68 20 66 66 NW 7 11 29.88 1012 10 16.0934 0 0
11:55 pm 23:55 Clear 82 28 66 19 58 58 NNE 6 9 29.89 1012 10 16.0934 0 0

Powered by AerisWeather